This is the latest recevied weather packets stored in our database for station/object N7AWM. If no packets are shown the sender has not sent any weather packets the latest 10 day(s).
| Time | Temp. | Humidity | Pressure | Rain* | Wind** | Luminosity | Snow |
|---|---|---|---|---|---|---|---|
| 1787797602 | 26.11° C | 35% | 1007.2 hPa | 0 mm | - | - | - |
| 1787796762 | 26.67° C | 34% | 1007.2 hPa | 0 mm | - | - | - |
| 1787795922 | 26.67° C | 32% | 1007.1 hPa | 0 mm | - | - | - |
| 1787795082 | 27.22° C | 32% | 1007.3 hPa | 0 mm | - | - | - |
| 1787794242 | 27.22° C | 30% | 1007.2 hPa | 0 mm | - | - | - |
| 1787793402 | 27.78° C | 27% | 1007.2 hPa | 0 mm | - | - | - |
| 1787792562 | 28.89° C | 25% | 1007.1 hPa | 0 mm | - | - | - |
| 1787791722 | 29.44° C | 25% | 1006.8 hPa | 0 mm | - | - | - |
| 1787790882 | 28.89° C | 27% | 1006.8 hPa | 0 mm | - | - | - |
| 1787790042 | 28.33° C | 28% | 1006.8 hPa | 0 mm | - | - | - |
| 1787789202 | 28.89° C | 33% | 1006.7 hPa | 0 mm | - | - | - |
| 1787788362 | 30° C | 26% | 1006.6 hPa | 0 mm | - | - | - |
| 1787787522 | 30.56° C | 25% | 1006.5 hPa | 0 mm | - | - | - |
| 1787786683 | 31.11° C | 27% | 1006.3 hPa | 0 mm | - | - | - |
| 1787785842 | 30.56° C | 30% | 1006.3 hPa | 0 mm | - | - | - |
| 1787785003 | 31.67° C | 28% | 1006.2 hPa | 0 mm | - | - | - |
| 1787784163 | 31.11° C | 27% | 1006.4 hPa | 0 mm | - | - | - |
| 1787783323 | 30.56° C | 28% | 1006.4 hPa | 0 mm | - | - | - |
| 1787782483 | 30.56° C | 29% | 1006.4 hPa | 0 mm | - | - | - |
| 1787781643 | 30.56° C | 29% | 1006.5 hPa | 0 mm | - | - | - |
| 1787780803 | 30.56° C | 32% | 1006.6 hPa | 0 mm | - | - | - |
| 1787779963 | 30.56° C | 29% | 1006.9 hPa | 0 mm | - | - | - |
| 1787779123 | 30.56° C | 28% | 1007 hPa | 0 mm | - | - | - |
| 1787778283 | 30° C | 33% | 1007.2 hPa | 0 mm | - | - | - |
| 1787777443 | 30° C | 32% | 1007.4 hPa | 0 mm | - | - | - |
* Rain latest hour (hover to see other rain measurements)
** Current wind speed in m/s (hover to see current wind gust speed)